TOM820 EGKK-LTAI

Flight info

Callsign TOM820
Flight time N/A
Altitude 35000
Route ODVIK Y311 DVR UL9 KONAN DCT KOK DCT LIRSU DCT LALMI DCT ABTAL DCT RIDAR DCT GOMIG DCT GOLVA DCT ADULA DCT TPL DCT IDABO DCT NISVA DCT USALI DCT RODIP UN131 PIBOM DCT BELGI UN131 KULAR UT39 NESIL
Aircraft B738/M-SDFGHIJ1RWXYZ/LB1

Departure

Time N/A
Airport London Gatwick Airport (EGKK)

Arrival

Time 2026-05-07 17:52
Airport Antalya International Airport (LTAI)
Time Latitude Longitude Altitude Speed Heading
2026-05-07 17:06 39.62067 27.07522 37128 ft 481 kts 138°
2026-05-07 17:07 39.57202 27.13477 37129 ft 481 kts 138°
2026-05-07 17:07 39.52336 27.19426 37133 ft 481 kts 138°
2026-05-07 17:08 39.47667 27.25632 37127 ft 482 kts 130°
2026-05-07 17:08 39.43505 27.32368 37128 ft 482 kts 129°
2026-05-07 17:09 39.39286 27.39117 37124 ft 482 kts 130°
2026-05-07 17:09 39.35004 27.45799 37119 ft 483 kts 130°
2026-05-07 17:10 39.30712 27.52469 37116 ft 483 kts 130°
2026-05-07 17:10 39.26422 27.59133 37119 ft 482 kts 130°
2026-05-07 17:11 39.22139 27.65779 37111 ft 481 kts 130°
2026-05-07 17:11 39.17863 27.72397 37116 ft 480 kts 130°
2026-05-07 17:12 39.13597 27.78987 37103 ft 479 kts 130°
2026-05-07 17:12 39.09327 27.85571 37131 ft 478 kts 130°
2026-05-07 17:13 39.05053 27.92140 37131 ft 479 kts 131°
2026-05-07 17:13 39.00764 27.98715 37135 ft 480 kts 131°
2026-05-07 17:14 38.96464 28.05297 37113 ft 481 kts 131°
2026-05-07 17:14 38.92155 28.11874 37123 ft 481 kts 131°
2026-05-07 17:15 38.87845 28.18450 37121 ft 481 kts 131°
2026-05-07 17:15 38.83532 28.25012 37136 ft 480 kts 131°
2026-05-07 17:16 38.79220 28.31564 37123 ft 481 kts 131°
2026-05-07 17:16 38.74900 28.38110 37149 ft 481 kts 131°
2026-05-07 17:17 38.70577 28.44648 37138 ft 481 kts 131°
2026-05-07 17:17 38.66250 28.51182 37139 ft 481 kts 131°
2026-05-07 17:18 38.61916 28.57712 37147 ft 482 kts 131°
2026-05-07 17:18 38.57412 28.64042 37132 ft 480 kts 141°
2026-05-07 17:19 38.52021 28.69039 37147 ft 479 kts 147°
2026-05-07 17:19 38.46519 28.73834 37145 ft 479 kts 147°
2026-05-07 17:20 38.41033 28.78671 37146 ft 480 kts 147°
2026-05-07 17:20 38.35560 28.83547 37164 ft 480 kts 147°
2026-05-07 17:21 38.30085 28.88428 37146 ft 481 kts 147°
2026-05-07 17:21 38.24608 28.93288 37151 ft 479 kts 147°
2026-05-07 17:22 38.19142 28.98149 37154 ft 480 kts 147°
2026-05-07 17:22 38.13707 29.02970 37157 ft 480 kts 147°
2026-05-07 17:23 38.08246 29.07800 37139 ft 471 kts 147°
2026-05-07 17:23 38.05599 29.10141 37137 ft 456 kts 147°
2026-05-07 17:23 38.03034 29.12407 37144 ft 445 kts 147°
2026-05-07 17:24 37.97946 29.16888 37171 ft 449 kts 147°
2026-05-07 17:24 37.92751 29.21452 37166 ft 458 kts 147°
2026-05-07 17:25 37.87496 29.26069 37183 ft 461 kts 147°
2026-05-07 17:25 37.82214 29.30699 37170 ft 463 kts 147°
2026-05-07 17:26 37.76917 29.35326 37174 ft 462 kts 147°
2026-05-07 17:26 37.71645 29.39959 37172 ft 460 kts 147°
2026-05-07 17:27 37.66388 29.44521 37168 ft 457 kts 147°
2026-05-07 17:27 37.61165 29.49049 37176 ft 455 kts 147°
2026-05-07 17:28 37.55976 29.53591 36702 ft 453 kts 147°
2026-05-07 17:28 37.53393 29.55851 35704 ft 456 kts 147°
2026-05-07 17:28 37.50757 29.58147 34664 ft 464 kts 147°
2026-05-07 17:29 37.48098 29.60439 33926 ft 462 kts 147°
2026-05-07 17:29 37.45461 29.62693 33351 ft 454 kts 147°
2026-05-07 17:29 37.42868 29.64914 32782 ft 447 kts 147°
2026-05-07 17:29 37.40313 29.67113 32162 ft 442 kts 147°
2026-05-07 17:30 37.37788 29.69290 31529 ft 438 kts 147°
2026-05-07 17:30 37.35289 29.71444 30946 ft 433 kts 147°
2026-05-07 17:30 37.32740 29.73387 30502 ft 424 kts 156°
2026-05-07 17:30 37.30073 29.74855 30044 ft 415 kts 159°
2026-05-07 17:31 37.27413 29.76199 29438 ft 410 kts 160°
2026-05-07 17:31 37.24786 29.77547 28775 ft 407 kts 159°
2026-05-07 17:31 37.22189 29.78935 28117 ft 404 kts 158°
2026-05-07 17:31 37.19621 29.80337 27485 ft 401 kts 158°
2026-05-07 17:32 37.17138 29.81890 26878 ft 399 kts 145°
2026-05-07 17:32 37.15183 29.84322 26260 ft 397 kts 123°
2026-05-07 17:32 37.13942 29.87374 25678 ft 390 kts 105°
2026-05-07 17:32 37.13551 29.89553 25293 ft 385 kts 94°
2026-05-07 17:33 37.13212 29.93987 24578 ft 380 kts 91°
2026-05-07 17:33 37.13024 29.97278 24042 ft 377 kts 91°
2026-05-07 17:33 37.12828 30.00544 23476 ft 375 kts 92°
2026-05-07 17:33 37.12613 30.03782 22907 ft 372 kts 92°
2026-05-07 17:34 37.12373 30.06991 22323 ft 369 kts 93°
2026-05-07 17:34 37.12117 30.10175 21744 ft 366 kts 93°
2026-05-07 17:34 37.11861 30.13335 21191 ft 363 kts 92°
2026-05-07 17:34 37.11609 30.16465 20624 ft 360 kts 92°
2026-05-07 17:35 37.11359 30.19575 20085 ft 357 kts 93°
2026-05-07 17:35 37.11111 30.22658 19547 ft 354 kts 93°
2026-05-07 17:35 37.10861 30.25718 19072 ft 350 kts 93°
2026-05-07 17:35 37.10615 30.28709 18814 ft 339 kts 93°
2026-05-07 17:36 37.10377 30.31595 18580 ft 328 kts 93°
2026-05-07 17:36 37.10146 30.34407 18262 ft 321 kts 93°
2026-05-07 17:36 37.09917 30.37119 17985 ft 313 kts 94°
2026-05-07 17:36 37.09489 30.39764 17692 ft 308 kts 102°
2026-05-07 17:37 37.08901 30.42325 17310 ft 305 kts 104°
2026-05-07 17:37 37.08287 30.44862 16877 ft 305 kts 104°
2026-05-07 17:37 37.07681 30.47392 16518 ft 301 kts 104°
2026-05-07 17:37 37.07098 30.49887 16148 ft 297 kts 104°
2026-05-07 17:38 37.06711 30.51567 15852 ft 297 kts 103°
2026-05-07 17:38 37.06148 30.54032 15411 ft 293 kts 103°
2026-05-07 17:38 37.05595 30.56478 15007 ft 291 kts 103°
2026-05-07 17:38 37.05050 30.58902 14655 ft 287 kts 103°
2026-05-07 17:39 37.04509 30.61298 14291 ft 285 kts 103°
2026-05-07 17:39 37.03979 30.63644 13923 ft 283 kts 103°
2026-05-07 17:39 37.03264 30.65958 13480 ft 284 kts 123°
2026-05-07 17:39 37.01832 30.67586 13061 ft 284 kts 153°
2026-05-07 17:40 36.99953 30.68239 12671 ft 280 kts 178°
2026-05-07 17:40 36.98018 30.68143 12278 ft 277 kts 185°
2026-05-07 17:40 36.96101 30.67952 11882 ft 276 kts 185°
2026-05-07 17:40 36.94197 30.67769 11504 ft 274 kts 185°
2026-05-07 17:41 36.92306 30.67602 11145 ft 271 kts 185°
2026-05-07 17:41 36.90430 30.67440 10758 ft 270 kts 184°
2026-05-07 17:41 36.88554 30.67282 10366 ft 269 kts 184°
2026-05-07 17:41 36.86694 30.67126 10015 ft 267 kts 184°
2026-05-07 17:42 36.84844 30.66972 9620 ft 266 kts 184°
2026-05-07 17:42 36.83006 30.66819 9240 ft 264 kts 184°
2026-05-07 17:42 36.81175 30.66667 8822 ft 264 kts 184°
2026-05-07 17:42 36.79347 30.66516 8428 ft 263 kts 184°
2026-05-07 17:43 36.77529 30.66365 8044 ft 261 kts 184°
2026-05-07 17:43 36.75716 30.66215 7666 ft 262 kts 184°
2026-05-07 17:43 36.73896 30.66064 7403 ft 262 kts 184°
2026-05-07 17:43 36.72088 30.65915 7189 ft 259 kts 184°
2026-05-07 17:44 36.70291 30.65766 6956 ft 259 kts 184°
2026-05-07 17:44 36.68493 30.65617 6703 ft 259 kts 184°
2026-05-07 17:44 36.66698 30.65468 6470 ft 258 kts 184°
2026-05-07 17:44 36.64940 30.65686 6263 ft 252 kts 156°
2026-05-07 17:45 36.63569 30.66915 6146 ft 240 kts 127°
2026-05-07 17:45 36.62768 30.68657 6077 ft 225 kts 107°
2026-05-07 17:45 36.62330 30.70452 5937 ft 211 kts 94°
2026-05-07 17:45 36.62543 30.72189 5621 ft 202 kts 59°
2026-05-07 17:46 36.63436 30.73479 5300 ft 197 kts 33°
2026-05-07 17:46 36.64684 30.74125 4971 ft 195 kts 12°
2026-05-07 17:46 36.65990 30.74502 4659 ft 196 kts 13°
2026-05-07 17:46 36.67316 30.74891 4321 ft 196 kts 13°
2026-05-07 17:47 36.68649 30.75279 3997 ft 198 kts 13°
2026-05-07 17:47 36.69993 30.75670 3708 ft 198 kts 13°
2026-05-07 17:47 36.71335 30.76062 3381 ft 200 kts 13°
2026-05-07 17:47 36.72682 30.76458 3112 ft 198 kts 13°
2026-05-07 17:48 36.74025 30.76852 2802 ft 200 kts 13°
2026-05-07 17:48 36.75378 30.77205 2544 ft 196 kts
2026-05-07 17:48 36.76711 30.77434 2343 ft 190 kts
2026-05-07 17:48 36.77979 30.77616 2246 ft 178 kts
2026-05-07 17:49 36.79212 30.77785 2000 ft 179 kts
2026-05-07 17:49 36.80439 30.77953 1795 ft 176 kts
2026-05-07 17:49 36.81638 30.78117 1514 ft 169 kts
2026-05-07 17:49 36.82757 30.78276 1309 ft 157 kts
2026-05-07 17:50 36.83787 30.78414 1145 ft 143 kts
2026-05-07 17:50 36.84779 30.78547 951 ft 144 kts
2026-05-07 17:50 36.85784 30.78687 774 ft 145 kts
2026-05-07 17:50 36.86780 30.78823 598 ft 144 kts
2026-05-07 17:51 36.87790 30.78961 380 ft 147 kts
2026-05-07 17:51 36.88797 30.79100 206 ft 143 kts
2026-05-07 17:51 36.89690 30.79225 201 ft 109 kts
2026-05-07 17:51 36.90289 30.79307 196 ft 65 kts
2026-05-07 17:52 36.90694 30.79362 203 ft 37 kts
2026-05-07 17:52 36.90866 30.79388 194 ft 22 kts
2026-05-07 17:52 36.90980 30.79439 201 ft 11 kts 37°
2026-05-07 17:52 36.91037 30.79493 199 ft 10 kts 37°
2026-05-07 17:53 36.91089 30.79540 192 ft 9 kts 36°
2026-05-07 17:53 36.91128 30.79596 190 ft 9 kts 79°
2026-05-07 17:53 36.91092 30.79639 190 ft 8 kts 181°
2026-05-07 17:53 36.91021 30.79629 202 ft 13 kts 187°
2026-05-07 17:54 36.90912 30.79612 191 ft 18 kts 187°
2026-05-07 17:54 36.90783 30.79593 191 ft 19 kts 186°
2026-05-07 17:54 36.90659 30.79577 193 ft 18 kts 186°
2026-05-07 17:54 36.90528 30.79557 197 ft 19 kts 186°
2026-05-07 17:55 36.90435 30.79554 195 ft 10 kts 152°
2026-05-07 17:55 36.90409 30.79648 200 ft 15 kts 97°
2026-05-07 17:55 36.90395 30.79799 196 ft 20 kts 97°
2026-05-07 17:55 36.90383 30.79943 205 ft 16 kts 96°
2026-05-07 17:56 36.90371 30.80076 191 ft 15 kts 96°
2026-05-07 17:56 36.90359 30.80214 191 ft 16 kts 96°
2026-05-07 17:56 36.90346 30.80361 191 ft 18 kts 96°
2026-05-07 17:56 36.90334 30.80496 193 ft 15 kts 96°
2026-05-07 17:57 36.90325 30.80607 199 ft 12 kts 96°
2026-05-07 17:57 36.90318 30.80677 191 ft 10 kts 98°
2026-05-07 17:57 36.90241 30.80758 193 ft 13 kts 156°
2026-05-07 17:57 36.90146 30.80769 199 ft 15 kts 186°
2026-05-07 17:58 36.90035 30.80754 205 ft 17 kts 186°
2026-05-07 17:58 36.89925 30.80740 193 ft 16 kts 186°
2026-05-07 17:58 36.89819 30.80725 200 ft 15 kts 187°
2026-05-07 17:58 36.89716 30.80710 191 ft 15 kts 185°
2026-05-07 17:59 36.89606 30.80696 196 ft 14 kts 186°
2026-05-07 17:59 36.89564 30.80612 191 ft 13 kts 273°
2026-05-07 17:59 36.89573 30.80501 191 ft 13 kts 276°
2026-05-07 17:59 36.89583 30.80393 194 ft 13 kts 276°
2026-05-07 18:00 36.89591 30.80296 202 ft 7 kts 276°
2026-05-07 18:00 36.89592 30.80289 199 ft 0 kts 277°
2026-05-07 18:00 36.89592 30.80287 210 ft 0 kts 277°
2026-05-07 18:01 36.89593 30.80284 209 ft 0 kts 282°
2026-05-07 18:01 36.89594 30.80282 207 ft 0 kts 287°
2026-05-07 18:01 36.89594 30.80279 206 ft 0 kts 290°
2026-05-07 18:01 36.89626 30.80238 176 ft 10 kts 325°
2026-05-07 18:02 36.89690 30.80186 191 ft 4 kts 327°
2026-05-07 18:02 36.89704 30.80175 191 ft 0 kts 327°
2026-05-07 18:03 36.89706 30.80160 191 ft 0 kts 352°